Powrót do katalogu

ONEWEB-0663

AktywnyŁącznośćPO
NORAD 55823·PAYLOAD·🇬🇧 United Kingdom

Wystrzelony Mar 9, 2023 z Cape Canaveral Space Force Station

Loading…

Następne Przeloty (najbliższe 24 godziny)

TLE

ŚwieżeSource: CelesTrak SupGP

Epoka: Sep 14, 2026, 15:15 UTC

1 55823C 23029AD  26257.63590278 -.00001583  00000+0 -38928-2 0  2578
2 55823  87.9138 256.6577 0002158  78.4424 336.7767 13.20874438    14

Śledź ONEWEB-0663 w czasie rzeczywistym z AllMySat

Download on the App Store